#timestamp,LO_Frequency,Hit 
1499929215.6,286046957.8,N
1499929235.5,286046962.6,N
1499929255.3,286046961.0,N
1499929275.1,286046962.5,N
1499929295.9,286046962.3,N
1499929315.7,286046957.8,N
1499929335.0,286046958.3,N
1499929335.9,286046958.3,N
1499929355.8,286046957.2,N
1499929375.6,286046959.1,N
1499929395.4,286046959.6,N
1499929415.3,286046955.5,Y
1499929435.3,286046999.8,N
1499929455.2,286047000.2,N
1499929475.8,286047001.9,N
1499929495.6,286046996.6,N
1499929515.4,286046997.6,N
1499929535.3,286046998.9,N
1499929555.1,286046998.3,N
1499929556.0,286046998.3,N
1499929575.8,286047002.1,N
1499929595.7,286047000.3,N
1499929615.5,286046999.4,N
1499929635.3,286047002.3,N
1499929655.2,286047000.4,N
1499929675.8,286047000.9,N
1499929695.6,286047002.6,N
1499929715.5,286046996.8,N
1499929735.3,286046999.2,N
1499929755.1,286046995.3,N
1499929775.8,286046996.0,N
1499929795.5,286046994.4,N
1499929815.3,286046991.2,N
1499929835.2,286046989.7,N
1499929855.9,286046990.3,N
1499929875.7,286046993.6,N
1499929895.6,286046992.2,N
1499929915.4,286046989.5,N
1499929935.2,286046987.1,N
1499929955.0,286046989.1,N
1499929956.0,286046989.1,N
1499929975.8,286046986.9,N
1499929995.6,286046988.9,N
1499930015.4,286046985.0,N
1499930035.3,286046983.7,N
1499930055.1,286046985.3,N
1499930075.8,286046987.4,N
1499930095.7,286046984.4,N
1499930115.5,286046984.0,N
1499930135.3,286046982.8,N
1499930155.2,286046987.4,N
1499930175.9,286046986.6,N
1499930195.7,286046983.5,N
1499930215.6,286046980.7,N
1499930235.4,286046986.5,N
1499930255.2,286046988.0,N
1499930275.0,286046985.7,N
1499930275.9,286046985.7,N
1499930295.8,286046989.5,N
1499930315.6,286046986.1,N
1499930335.4,286046982.1,N
1499930355.3,286046984.5,N
1499930375.1,286046985.9,N
1499930376.0,286046985.9,N
1499930395.8,286046988.0,N
1499930415.7,286046989.6,N
1499930435.5,286046989.5,N
1499930455.3,286046991.2,N
1499930475.2,286046990.1,N
1499930495.9,286046998.0,N
1499930515.7,286047000.6,N
1499930535.5,286046993.9,N
1499930555.4,286046995.3,N
1499930575.2,286046997.0,N
1499930595.0,286046991.7,N
1499930595.9,286046991.7,N
1499930615.8,286046996.0,N
1499930635.6,286046998.5,N
1499930655.4,286046994.9,N
1499930675.3,286046996.8,N
1499930695.8,286047000.7,N
1499930715.7,286047002.5,N
1499930735.5,286047000.4,N
1499930755.3,286046994.0,N
1499930775.2,286046995.3,N
1499930795.9,286046997.0,N
1499930815.7,286047002.2,N
1499930835.5,286047000.1,N
1499930855.4,286046999.9,N
1499930875.2,286046998.5,N
1499930895.0,286047004.1,N
1499930895.9,286047004.1,N
1499930915.8,286047000.3,N
1499930935.6,286047002.4,N
1499930955.4,286047003.4,N
1499930975.3,286046996.6,N
1499930995.1,286046996.7,N
1499930996.0,286046996.7,N
1499931015.8,286047002.7,N
1499931035.6,286047000.3,N
1499931055.5,286046999.4,N
1499931075.3,286046999.1,N
1499931095.1,286046992.6,N
1499931115.8,286046992.1,N
1499931135.7,286046993.4,N
1499931155.5,286046995.0,N
1499931175.3,286046995.3,N
1499931195.2,286046991.9,N
1499931215.9,286046991.1,N
1499931235.7,286046988.5,N
1499931255.6,286046990.6,N
1499931275.4,286046996.2,N
1499931295.2,286046998.6,N
1499931315.1,286046997.7,N
1499931316.0,286046997.7,N
1499931335.8,286047000.9,N
1499931355.6,286046999.1,N
1499931375.5,286046995.4,N
1499931395.3,286046995.1,N
1499931415.1,286046996.6,N
1499931435.9,286047000.9,N
1499931455.7,286046998.8,N
1499931475.5,286047005.6,N
1499931495.3,286047005.4,N
1499931515.2,286046998.6,N
1499931535.0,286046997.9,N
1499931535.9,286046997.9,N
1499931555.6,286046998.7,N
1499931575.4,286047000.5,N
1499931595.3,286047001.4,N
1499931615.1,286047003.1,N
1499931616.0,286047003.1,N
1499931635.8,286046998.4,N
1499931655.1,286047003.0,N
1499931656.0,286047003.0,N
1499931675.8,286047008.5,N
1499931695.6,286047006.9,N
1499931715.5,286047008.3,N
1499931735.3,286047006.1,N
1499931755.1,286047006.8,N
1499931775.8,286047007.2,N
1499931795.7,286047006.1,N
1499931815.5,286047008.5,N
1499931835.3,286047004.6,N
1499931855.2,286047005.3,N
1499931875.9,286047004.2,N
1499931895.7,286047002.7,N
1499931915.6,286047003.2,N
1499931935.4,286046998.9,N
1499931955.2,286046993.9,N
1499931975.1,286046994.0,N
1499931976.0,286046994.0,N
1499931995.8,286046995.5,N
1499932015.6,286046997.8,N
1499932035.4,286046995.3,N
1499932055.3,286046993.9,N
1499932075.1,286046993.5,N
1499932095.8,286046991.7,N
1499932115.2,286046994.0,N
1499932135.1,286046998.8,N
1499932136.0,286046998.8,N
1499932155.8,286047004.0,N
1499932175.6,286046998.2,N
1499932195.5,286046997.7,N
1499932215.3,286047002.3,N
1499932235.1,286047001.7,N
1499932255.9,286047002.3,N
1499932275.7,286047002.5,N
1499932295.5,286047006.0,N
1499932315.4,286047000.6,N
1499932335.2,286046998.9,N
1499932355.0,286046999.6,N
1499932355.9,286046999.6,N
1499932375.7,286046999.6,N
1499932395.6,286047000.7,N
1499932415.4,286046993.4,N
1499932435.2,286046992.2,N
1499932455.1,286046996.0,N
1499932456.0,286046996.0,N
1499932475.8,286046993.3,N
1499932495.6,286046996.7,N
1499932515.5,286046999.1,N
1499932535.3,286046992.8,N
1499932555.1,286046994.4,N
1499932575.9,286046994.3,N
1499932595.7,286046991.8,N
1499932615.5,286046993.7,N
1499932635.3,286046991.8,N
1499932655.2,286046991.6,N
1499932675.0,286046988.5,N
1499932675.9,286046988.5,N
1499932695.7,286046987.0,N
1499932715.6,286046989.6,N
1499932735.4,286046993.3,N
1499932755.2,286046992.6,N
1499932775.1,286046992.0,N
1499932795.6,286046992.6,N
